Regional Weather Roundup
Issued by NWS

Home | Current Version | Previous Version | Graphics & Text | Print | Product List | Glossary On
Versions: 1 2 3 4 5 6 7 8 9 10 11 12 13 14 15 16 17 18 19 20 21 22 23 24 25 26 27 28 29 30 31 32 33 34 35 36 37 38 39 40 41 42 43 44 45 46 47 48 49 50
000
ASUS43 KLSX 150007
RWRMO

WEATHER SUMMARY FOR MISSOURI
NATIONAL WEATHER SERVICE SPRINGFIELD MO
700 PM CDT SUN SEP 14 2014

NOTE: "FAIR" INDICATES FEW OR NO CLOUDS BELOW 12,000 FEET WITH NO
       SIGNIFICANT WEATHER AND/OR OBSTRUCTIONS TO VISIBILITY.
       CURRENT SKY AND/OR WEATHER CONDITIONS ARE NOT AVAILABLE FOR
       CHILLICOTHE AND FARMINGTON.

MOZ001>031-035>038-043-044-053-054-150100-
...NORTHERN AND WESTERN MISSOURI...

CITY           SKY/WX    TMP DP  RH WIND       PRES   REMARKS
KANSAS CTY INT MOCLDY    68  57  68 SE10      30.09F
6HR MIN TEMP:  68; 6HR MAX TEMP:  72;

KANSAS C DTWN  MOCLDY    72  55  55 SE9       30.08F
6HR MIN TEMP:  70; 6HR MAX TEMP:  74;

LEE`S SUMMIT   CLEAR     68  56  65 SE6       30.11F
6HR MIN TEMP:  67; 6HR MAX TEMP:  72;

ST JOSEPH      MOCLDY    68  56  65 SE7       30.08F
6HR MIN TEMP:  68; 6HR MAX TEMP:  73;

KIRKSVILLE     CLEAR     62  53  72 SE5       30.15S
6HR MIN TEMP:  62; 6HR MAX TEMP:  69;


$$
MOZ066>068-077>081-088>096-101>105-150100-
...SOUTHWEST MISSOURI...

CITY           SKY/WX    TMP DP  RH WIND       PRES   REMARKS
SPRINGFIELD    CLEAR     71  53  52 S9        30.15S
6HR MIN TEMP:  68; 6HR MAX TEMP:  76;

JOPLIN         CLEAR     73  58  59 S7        30.13S
6HR MIN TEMP:  68; 6HR MAX TEMP:  77;


$$
MOZ032>034-039>042-045>050-055>058-069>072-150100-
...CENTRAL MISSOURI...

CITY           SKY/WX    TMP DP  RH WIND       PRES   REMARKS
COLUMBIA       PTCLDY    64  53  67 S6        30.17S
6HR MIN TEMP:  64; 6HR MAX TEMP:  71;

JEFFERSON CITY MOCLDY    67  52  58 CALM      30.16S
6HR MIN TEMP:  67; 6HR MAX TEMP:  72;

ROLLA          CLOUDY    65  52  62 E5        30.16S
6HR MIN TEMP:  65; 6HR MAX TEMP:  69;

SEDALIA        CLEAR     67  56  67 S6        30.15S
6HR MIN TEMP:  67; 6HR MAX TEMP:  71;

WHITEMAN AFB   CLEAR     66  57  72 S5        30.13F
OSAGE BEACH    CLEAR     66  52  59 E3        30.16S

$$
MOZ051-052-059>065-150100-
...EAST CENTRAL MISSOURI...

CITY           SKY/WX    TMP DP  RH WIND       PRES   REMARKS
ST LOUIS INTL  PTCLDY    68  47  46 E7        30.19R
6HR MIN TEMP:  68; 6HR MAX TEMP:  73;

SPIRIT OF STL  CLEAR     63  55  75 CALM      30.17S
6HR MIN TEMP:  63; 6HR MAX TEMP:  71;

ST CHARLES     CLEAR     65  51  60 E5        30.18S
6HR MIN TEMP:  65; 6HR MAX TEMP:  70;


$$
MOZ072>076-082>087-097>100-106>115-150100-
...SOUTH CENTRAL AND SOUTHEAST MISSOURI...

CITY           SKY/WX    TMP DP  RH WIND       PRES   REMARKS
CAPE GIRARDEAU CLEAR     68  52  56 CALM      30.19S
6HR MIN TEMP:  68; 6HR MAX TEMP:  73;

FARMINGTON     PTCLDY    64  50  59 E6        30.20F
6HR MIN TEMP:  64; 6HR MAX TEMP:  72;

POPLAR BLUFF   CLEAR     69  53  56 CALM      30.18R
6HR MIN TEMP:  69; 6HR MAX TEMP:  74;

WEST PLAINS    CLEAR     69  50  50 SE3       30.20S
6HR MIN TEMP:  68; 6HR MAX TEMP:  73;


$$


USA.gov is the U.S. government's official web portal to all federal, state and local government web resources and services.